Regional Weather Roundup
Issued by NWS Sioux Falls, SD

Home | Current Version | Previous Version | Text Only | Print | Product List | Glossary Off
Versions: 1 2 3 4 5 6 7 8 9 10 11 12 13 14 15 16 17 18 19 20 21 22 23 24 25 26 27 28 29 30 31 32 33 34 35 36 37 38 39 40 41 42 43 44 45 46 47 48 49 50

000
ASUS43 KFSD 201210
RWRFSD

WEATHER ROUNDUP FOR SE SOUTH DAKOTA/SW MINNESOTA/NW IOWA
NATIONAL WEATHER SERVICE SIOUX FALLS SD
700 AM CDT WED AUG 20 2014

NOTE: "FAIR" INDICATES FEW OR NO CLOUDS BELOW 12,000 FEET WITH NO
SIGNIFICANT WEATHER AND OR OBSTRUCTIONS TO VISIBILITY.


SDZ038>040-050-052>070-201300-
SOUTHEAST SOUTH DAKOTA

CITY           SKY/WX    TMP DP  RH WIND       PRES   REMARKS
CHAMBERLAIN    MOCLDY    67  64  91 SE13      29.72S
6HR MIN TEMP:  65; 6HR MAX TEMP:  70; 6HR PCP:  0.01;

HURON          CLOUDY    68  64  87 E12       29.68F
6HR MIN TEMP:  67; 6HR MAX TEMP:  68; 6HR PCP: TRACE;

MADISON        LGT RAIN  64  64 100 E6        29.81F
MITCHELL       CLOUDY    70  66  87 SE15      29.75F
6HR MIN TEMP:  65; 6HR MAX TEMP:  70; 6HR PCP:  0.30;

SIOUX FALLS    TSTM      68  66  93 S3        29.82R
6HR MIN TEMP:  66; 6HR MAX TEMP:  71; 6HR PCP:  0.01;

WINNER         FAIR      68  65  90 SE9       29.74S
YANKTON        CLOUDY    68  66  94 E8        29.77R
$$

MNZ071-072-080-081-089-090-097-098-201300-
SOUTHWEST MINNESOTA

CITY           SKY/WX    TMP DP  RH WIND       PRES   REMARKS
FAIRMONT       CLOUDY    63  41  45 CALM      29.85R
JACKSON        CLOUDY    63  61  94 S5        29.88R
LUVERNE        CLOUDY    64  63  94 E8        29.80F
MARSHALL       CLOUDY    64  61  88 SE3       29.83R
6HR MIN TEMP:  63; 6HR MAX TEMP:  66;

MONTEVIDEO     CLOUDY    63  63 100 S5        29.84R
PIPESTONE      LGT RAIN  66  63  88 S3        29.86S
REDWOOD FALLS  CLOUDY    63  62  97 S5        29.84R FOG
TRACY          CLOUDY    68  64  86 S8        29.85R
WINDOM         CLOUDY    64  63  94 S3        29.86R
WORTHINGTON    CLOUDY    64   9  11 S7        29.87R
$$

IAZ001>003-012>014-020>022-031-032-NEZ013-014-SDZ071-201300-
NORTHWEST IOWA

CITY           SKY/WX    TMP DP  RH WIND       PRES   REMARKS
CHEROKEE       LGT RAIN  67  66  97 CALM      29.85F
DENISON        LGT RAIN  70  68  94 NW15G23   29.87R
ESTHERVILLE    CLOUDY    61  61 100 S3        29.87R FOG
LE MARS        CLOUDY    68  66  94 VRB6G17   29.82R
ORANGE CITY    LGT RAIN  70  64  83 E7        29.83F
SHELDON        LGT RAIN  66  66 100 SE6       29.85F
SIOUX CITY     LGT RAIN  71  65  81 E10       29.78R
6HR MIN TEMP:  68; 6HR MAX TEMP:  71; 6HR PCP:  2.00;

SPENCER        TSTM      68  63  84 SW13G20   29.90R
6HR MIN TEMP:  61; 6HR MAX TEMP:  65;

STORM LAKE     DRIZZLE   66  66 100 SW8       29.89R
$$

ABBREVIATIONS USED IN REMARKS
   TC - TEMPERATURE IN CELSIUS
  WCI - WIND CHILL INDEX
   HX - HEAT INDEX
  VSB - VISIBILITY



USA.gov is the U.S. government's official web portal to all federal, state and local government web resources and services.